GLOBALSTAR M083

Last updated on Sun Jun 21 2026 00:03:18 GMT+0000 (Coordinated Universal Time)

1 37739U 11033A 26171.24881131 -.00000087 00000+0 92563-4 0 9996 2 37739 51.9874 3.1972 0000954 71.2932 100.8602 12.62263282693334
UTC large
Height (km)
Speed (km/s)
/
Latitude / Longitude
Inclination (degrees)
Orbital Period (minutes)
Azimuth
Elevation
Range (km)
Doppler Factor

Next 0 passes for location: London (51.5072 / 0.1276)

No passes found over London.
GLOBALSTAR M083